Location: Macksville High School
(37.9611°N, 99.9654°W)
Time: 08:57:22
(UTC+00:00)

PSLV R/B - Pass Details

Date: 27 February 2020
Orbit: 505 x 578 km, 97.8° (Epoch: 08 April)

Event Time Altitude Azimuth Distance (km) Brightness Sun altitude
Rises 12:14:36 0° 4° (N) 2,662 7.4 -12.7°
Reaches altitude 10° 12:16:45 10° 358° (N) 1,780 6.4 -12.2°
Maximum altitude 12:20:24 43° 286° (WNW) 758 4.1 -11.5°
Drops below altitude 10° 12:24:07 10° 214° (SW) 1,808 6.1 -10.8°
Sets 12:26:19 0° 208° (SSW) 2,710 7.1 -10.3°
